sat.trackr.live / text

‹ back to catalog

STARLINK-37430

NORAD 68863 · 2026-094AA

PAYLOAD ACTIVE UNKNOWN

§ Identity

Operator
Country
US
Launch date
2026-04-26
Launch site
AFWTR
Launch vehicle
Mass (kg)
RCS (m²)

Purposes: comms

External: N2YO · Heavens-Above · Gunter

§ Orbital elements

Epoch: 2026-05-25T04:00:03.998880Z

Period
92.95 min
Inclination
97.2845°
Eccentricity
0.0000710
Mean motion
15.49173488 rev/d
Perigee alt
418.7 km
Apogee alt
419.6 km
Semi-major
6,797.3 km
B*
-3.0096e-4
RAAN
159.8881°
Arg perigee
101.7948°
Mean anomaly
29.9855°
Rev number
567

§ Raw data

STARLINK-374301 68863U 26094AA  26145.16671295 -.00016415  00000+0 -30096-3 0  99962 68863  97.2845 159.8881 0000710 101.7948  29.9855 15.49173488  5672

JSON: /api/v1/satellites/68863 · /tle

For live sub-satellite position, see the globe view (requires WebGL).

§ Visibility from observer

Set your observer location to see the next 7 days of passes ≥ 10°. The values pass through the URL so the page stays shareable.

No JS? Fill the form by hand. The geolocation button needs JavaScript.